Regional Weather Roundup
Issued by NWS Goodland, KS

Home | Current Version | Previous Version | Text Only | Print | Product List | Glossary Off
Versions: 1 2 3 4 5 6 7 8 9 10 11 12 13 14 15 16 17 18 19 20 21 22 23 24 25 26 27 28 29 30 31 32 33 34 35 36 37 38 39 40 41 42 43 44 45 46 47 48 49 50

945
ASUS43 KGLD 241108
RWRGLD

GOODLAND FORECAST AREA HOURLY WEATHER ROUNDUP
NATIONAL WEATHER SERVICE GOODLAND KS
500 AM MDT MON APR 24 2017

...OFFICIAL OBSERVATIONS...

CITY           SKY/WX    TMP DP  RH WIND       PRES   REMARKS
GOODLAND KS    CLOUDY    50  39  66 S16       29.52F
HILL CITY KS   CLOUDY    53  37  54 S30G41    29.58F
IMPERIAL NEB   PTCLDY    41  36  82 NE3       29.53R
MCCOOK NEB     CLOUDY    51  36  56 S10       29.53F
AKRON CO       CLOUDY    50  37  61 NW18      29.63R
BURLINGTON CO  NOT AVBL
LIMON CO       CLOUDY    50  37  61 N18       29.68R
$$

...UNOFFICIAL OBSERVATIONS...

CITY           SKY/WX    TMP DP  RH WIND       PRES   REMARKS
LENORA KS        N/A     52  32  46 MISG        N/A
NORTON KS      CLEAR     54  34  47 S13G24    29.57F
SHARON SPRINGS   N/A     47  40  77 S16         N/A
TRENTON NEB      N/A     45  32  60 CALM        N/A
KIT CARSON CO    N/A     39  34  82 CALM        N/A
YUMA CO        FAIR      48  37  66 NW12      29.59R
$$




USA.gov is the U.S. government's official web portal to all federal, state and local government web resources and services.